When you browse on this site, cookies collect data to enhance your experience and personalize the content and advertising you see.
Visit our Privacy Policy to learn more. By continuing to use the site, you agree to this use of cookies and data.
EN

Hourly Weather Ali-Kuyu

Today, 13 August, Thursday

Time Temperature Precipitation Wind Pressure Humidity
00:00 +26°C° 0 mm 3 mps 750 mmHg 35%
01:00 +26°C° 0 mm 3 mps 750 mmHg 36%
02:00 +26°C° 0 mm 2 mps 750 mmHg 37%
03:00 +26°C° 0 mm 2 mps 750 mmHg 38%
04:00 +26°C° 0 mm 2 mps 750 mmHg 40%
05:00 +25°C° 0 mm 2 mps 750 mmHg 42%
06:00 +25°C° 0 mm 2 mps 750 mmHg 43%
07:00 +27°C° 0 mm 2 mps 750 mmHg 42%
08:00 +28°C° 0 mm 2 mps 750 mmHg 41%
09:00 +29°C° 0 mm 3 mps 749 mmHg 39%
10:00 +30°C° 0 mm 3 mps 749 mmHg 37%
11:00 +33°C° 0 mm 3 mps 749 mmHg 34%
12:00 +34°C° 0 mm 4 mps 749 mmHg 31%
13:00 +34°C° 0 mm 3 mps 749 mmHg 30%
14:00 +34°C° 0 mm 3 mps 749 mmHg 29%
15:00 +35°C° 0 mm 2 mps 748 mmHg 28%
16:00 +34°C° 0 mm 3 mps 748 mmHg 30%
17:00 +34°C° 0 mm 3 mps 749 mmHg 32%
18:00 +33°C° 0 mm 3 mps 749 mmHg 34%
19:00 +30°C° 0.1 mm 4 mps 749 mmHg 40%
20:00 +28°C° 0.1 mm 5 mps 749 mmHg 46%
21:00 +26°C° 0.1 mm 6 mps 750 mmHg 52%
22:00 +25°C° 0.5 mm 5 mps 750 mmHg 58%
23:00 +23°C° 0.5 mm 4 mps 750 mmHg 64%

Tomorrow, 14 August, Friday

Time Temperature Precipitation Wind Pressure Humidity
00:00 +23°C° 0.5 mm 2 mps 750 mmHg 70%
01:00 +22°C° 0.2 mm 3 mps 750 mmHg 71%
02:00 +22°C° 0.2 mm 3 mps 750 mmHg 72%
03:00 +22°C° 0.2 mm 3 mps 750 mmHg 73%
04:00 +22°C° 0 mm 3 mps 750 mmHg 73%
05:00 +22°C° 0 mm 3 mps 750 mmHg 73%
06:00 +22°C° 0 mm 3 mps 750 mmHg 74%
07:00 +24°C° 0 mm 3 mps 750 mmHg 68%
08:00 +25°C° 0 mm 3 mps 750 mmHg 62%
09:00 +26°C° 0 mm 3 mps 750 mmHg 55%
10:00 +27°C° 0 mm 3 mps 750 mmHg 50%
11:00 +28°C° 0 mm 3 mps 749 mmHg 44%
12:00 +29°C° 0 mm 2 mps 749 mmHg 38%
13:00 +30°C° 0 mm 2 mps 749 mmHg 36%
14:00 +31°C° 0 mm 2 mps 749 mmHg 33%
15:00 +31°C° 0 mm 2 mps 749 mmHg 31%
16:00 +31°C° 0 mm 2 mps 749 mmHg 32%
17:00 +30°C° 0 mm 3 mps 749 mmHg 33%
18:00 +30°C° 0 mm 3 mps 749 mmHg 34%
19:00 +28°C° 0.2 mm 4 mps 749 mmHg 38%
20:00 +26°C° 0.2 mm 5 mps 750 mmHg 42%
21:00 +23°C° 0.2 mm 5 mps 750 mmHg 46%
22:00 +23°C° 0.4 mm 4 mps 750 mmHg 52%
23:00 +22°C° 0.4 mm 3 mps 751 mmHg 58%

Day after tomorrow, 15 August, Saturday

Time Temperature Precipitation Wind Pressure Humidity
00:00 +21°C° 0.4 mm 2 mps 751 mmHg 64%
01:00 +21°C° 0.1 mm 2 mps 751 mmHg 67%
02:00 +21°C° 0.1 mm 2 mps 751 mmHg 69%
03:00 +20°C° 0.1 mm 2 mps 751 mmHg 72%
04:00 +20°C° 0 mm 2 mps 751 mmHg 71%
05:00 +20°C° 0 mm 2 mps 751 mmHg 71%
06:00 +20°C° 0 mm 2 mps 752 mmHg 70%
07:00 +21°C° 0 mm 2 mps 752 mmHg 60%
08:00 +23°C° 0 mm 2 mps 752 mmHg 50%
09:00 +25°C° 0 mm 2 mps 752 mmHg 40%
10:00 +26°C° 0 mm 2 mps 752 mmHg 37%
11:00 +27°C° 0 mm 2 mps 751 mmHg 34%
12:00 +28°C° 0 mm 2 mps 751 mmHg 31%
13:00 +28°C° 0 mm 3 mps 751 mmHg 29%
14:00 +29°C° 0 mm 3 mps 751 mmHg 27%
15:00 +30°C° 0 mm 3 mps 751 mmHg 26%
16:00 +29°C° 0 mm 3 mps 751 mmHg 26%
17:00 +29°C° 0 mm 3 mps 751 mmHg 27%
18:00 +29°C° 0 mm 3 mps 751 mmHg 28%
19:00 +27°C° 0 mm 2 mps 751 mmHg 30%
20:00 +26°C° 0 mm 2 mps 751 mmHg 32%
21:00 +24°C° 0 mm 1 mps 751 mmHg 35%
22:00 +23°C° 0 mm 2 mps 751 mmHg 36%
23:00 +22°C° 0 mm 3 mps 751 mmHg 38%

16 August, Sunday

Time Temperature Precipitation Wind Pressure Humidity
00:00 +21°C° 0 mm 4 mps 751 mmHg 39%
01:00 +21°C° 0 mm 4 mps 751 mmHg 42%
02:00 +20°C° 0 mm 4 mps 751 mmHg 44%
03:00 +19°C° 0 mm 4 mps 752 mmHg 46%
04:00 +19°C° 0 mm 4 mps 752 mmHg 47%
05:00 +19°C° 0 mm 4 mps 752 mmHg 47%
06:00 +19°C° 0 mm 4 mps 752 mmHg 48%
07:00 +20°C° 0 mm 3 mps 752 mmHg 45%
08:00 +21°C° 0 mm 3 mps 752 mmHg 43%
09:00 +22°C° 0 mm 3 mps 752 mmHg 41%
10:00 +24°C° 0 mm 3 mps 752 mmHg 38%
11:00 +25°C° 0 mm 3 mps 752 mmHg 36%
12:00 +26°C° 0 mm 4 mps 752 mmHg 34%
13:00 +27°C° 0 mm 3 mps 751 mmHg 33%
14:00 +27°C° 0 mm 3 mps 751 mmHg 32%
15:00 +28°C° 0 mm 2 mps 751 mmHg 31%
16:00 +28°C° 0 mm 2 mps 751 mmHg 32%
17:00 +27°C° 0 mm 2 mps 751 mmHg 33%
18:00 +27°C° 0 mm 2 mps 751 mmHg 33%
19:00 +27°C° 0 mm 2 mps 751 mmHg 34%
20:00 +26°C° 0 mm 2 mps 752 mmHg 35%
21:00 +25°C° 0 mm 1 mps 752 mmHg 36%
22:00 +25°C° 0 mm 1 mps 752 mmHg 38%
23:00 +25°C° 0 mm 1 mps 752 mmHg 39%

17 August, Monday

Time Temperature Precipitation Wind Pressure Humidity
00:00 +24°C° 0 mm 2 mps 752 mmHg 41%
01:00 +24°C° 0 mm 2 mps 752 mmHg 43%
02:00 +23°C° 0 mm 2 mps 752 mmHg 45%
03:00 +21°C° 0 mm 2 mps 752 mmHg 47%
04:00 +21°C° 0 mm 2 mps 752 mmHg 48%
05:00 +20°C° 0 mm 2 mps 752 mmHg 50%
06:00 +20°C° 0 mm 2 mps 753 mmHg 51%
07:00 +21°C° 0 mm 3 mps 753 mmHg 47%
08:00 +24°C° 0 mm 3 mps 753 mmHg 43%
09:00 +25°C° 0 mm 3 mps 753 mmHg 39%
10:00 +26°C° 0 mm 3 mps 753 mmHg 36%
11:00 +27°C° 0 mm 2 mps 753 mmHg 33%
12:00 +28°C° 0 mm 2 mps 753 mmHg 30%
13:00 +28°C° 0 mm 2 mps 752 mmHg 28%
14:00 +29°C° 0 mm 2 mps 752 mmHg 27%
15:00 +29°C° 0 mm 2 mps 752 mmHg 26%
16:00 +29°C° 0 mm 2 mps 752 mmHg 26%
17:00 +29°C° 0 mm 2 mps 752 mmHg 27%
18:00 +29°C° 0 mm 2 mps 751 mmHg 28%
19:00 +27°C° 0 mm 2 mps 752 mmHg 31%
20:00 +25°C° 0 mm 1 mps 752 mmHg 34%
21:00 +24°C° 0 mm 1 mps 752 mmHg 37%
22:00 +23°C° 0 mm 1 mps 752 mmHg 39%
23:00 +22°C° 0 mm 1 mps 752 mmHg 40%

18 August, Tuesday

Time Temperature Precipitation Wind Pressure Humidity
00:00 +20°C° 0 mm 0 mps 752 mmHg 42%
01:00 +21°C° 0 mm 1 mps 751 mmHg 43%
02:00 +21°C° 0 mm 1 mps 751 mmHg 45%
03:00 +21°C° 0 mm 1 mps 751 mmHg 46%
04:00 +21°C° 0 mm 1 mps 751 mmHg 49%
05:00 +21°C° 0 mm 1 mps 751 mmHg 51%
06:00 +21°C° 0 mm 1 mps 751 mmHg 53%
07:00 +23°C° 0 mm 1 mps 751 mmHg 47%
08:00 +23°C° 0 mm 0 mps 751 mmHg 41%
09:00 +25°C° 0 mm 0 mps 751 mmHg 35%
10:00 +28°C° 0 mm 1 mps 751 mmHg 31%
11:00 +29°C° 0 mm 2 mps 750 mmHg 28%
12:00 +30°C° 0 mm 2 mps 750 mmHg 24%
13:00 +30°C° 0 mm 3 mps 750 mmHg 23%
14:00 +31°C° 0 mm 3 mps 749 mmHg 21%
15:00 +31°C° 0 mm 3 mps 749 mmHg 20%
16:00 +31°C° 0 mm 3 mps 749 mmHg 22%
17:00 +30°C° 0 mm 3 mps 749 mmHg 24%
18:00 +30°C° 0 mm 3 mps 749 mmHg 26%
19:00 +28°C° 0 mm 4 mps 749 mmHg 31%
20:00 +27°C° 0 mm 5 mps 749 mmHg 36%
21:00 +24°C° 0 mm 6 mps 749 mmHg 41%
22:00 +23°C° 0 mm 5 mps 749 mmHg 47%
23:00 +22°C° 0 mm 4 mps 749 mmHg 53%
Show more